Date,TemperatureHighF,TemperatureAvgF,TemperatureLowF,DewpointHighF,DewpointAvgF,DewpointLowF,HumidityHigh,HumidityAvg,HumidityLow,PressureMaxIn,PressureMinIn,WindSpeedMaxMPH,WindSpeedAvgMPH,GustSpeedMaxMPH,PrecipitationSumIn
2013-5-1,57,40,34,42,35,32,94,85,42,30.44,29.90,6,2,14,0.56
2013-5-2,44,38,32,32,29,25,96,72,51,30.51,30.38,7,3,16,0.21
2013-5-3,38,34,31,32,29,25,93,84,60,30.38,30.13,7,4,16,0.23
2013-5-4,50,40,32,42,36,30,96,88,72,30.14,30.09,5,3,12,0.09
2013-5-5,64,48,38,47,40,34,90,75,52,30.14,30.03,4,2,9,0.00
2013-5-6,74,57,39,49,44,38,98,66,34,30.07,29.96,3,0,8,0.00
2013-5-7,78,60,44,50,44,37,94,62,24,30.01,29.90,3,0,10,0.00
2013-5-8,77,62,47,61,50,44,95,71,32,29.95,29.87,3,0,11,0.27
2013-5-9,58,52,44,56,47,28,96,83,53,30.04,29.88,7,3,21,0.23
2013-5-10,65,50,37,45,27,18,85,45,17,30.07,29.83,5,2,11,0.01
2013-5-11,51,46,40,46,26,16,90,48,27,30.13,29.82,8,4,24,0.01
2013-5-12,57,44,30,26,20,15,79,42,19,30.19,30.05,6,2,17,0.00
2013-5-13,69,52,29,46,33,24,91,54,24,30.08,29.61,4,1,13,0.02
2013-5-14,96,72,46,55,45,31,91,46,15,29.63,29.37,5,1,19,0.00
2013-5-15,76,65,51,50,45,40,77,50,27,29.84,29.58,5,1,17,0.00
2013-5-16,80,68,49,50,43,31,90,45,23,29.86,29.76,4,1,13,0.00
2013-5-17,67,58,55,55,50,31,96,78,26,29.94,29.83,3,1,12,0.20
2013-5-18,79,63,54,66,59,52,100,88,58,29.96,29.74,2,0,7,1.19
2013-5-19,80,67,62,67,63,61,99,89,60,29.75,29.49,4,0,12,1.61
2013-5-20,70,64,58,63,60,56,100,86,62,29.51,29.43,1,0,10,0.33
2013-5-21,66,58,50,61,56,50,99,94,79,29.64,29.45,2,0,7,0.06
2013-5-22,54,50,46,50,47,43,98,92,67,29.93,29.63,5,2,16,0.13
2013-5-23,62,53,43,43,35,28,78,53,28,30.30,29.94,5,2,13,0.00
2013-5-24,67,53,35,53,40,31,96,65,35,30.36,30.14,2,0,13,0.12
2013-5-25,62,56,51,52,48,42,98,76,57,30.22,30.18,3,0,8,0.06
2013-5-26,58,54,49,48,44,37,82,67,50,30.19,30.00,3,1,12,0.00
2013-5-27,59,56,53,55,51,46,96,83,70,30.00,29.78,3,1,10,0.08
2013-5-28,58,55,52,56,54,51,98,96,93,29.78,29.67,1,0,7,0.06
2013-5-29,73,63,52,70,61,52,100,93,76,29.77,29.58,1,0,7,0.43
2013-5-30,75,68,63,67,63,61,100,87,65,29.63,29.46,1,0,8,0.27
2013-5-31,77,67,58,62,59,49,98,78,41,29.50,29.44,3,0,13,0.19